Chillicothe, MO

9:15 AM CST on February 27, 2017 (GMT -0600)
Chillicothe

Weather History for KCDJ - August, 2013

Change the Weather History Date:

Friday, August 30, 2013

  Actual Average (KIRK) Record (KIRK)
Temperature  
Mean Temperature 86 °F -  
Max Temperature 102 °F 84 °F 104 °F (1947)
Min Temperature 73 °F 62 °F 49 °F (1946)
Cooling Degree Days 22    
Growing Degree Days 36 (Base 50)    
Moisture  
Dew Point 68 °F    
Average Humidity 60    
Maximum Humidity 87    
Minimum Humidity 24    
Precipitation  
Precipitation 0.00 in - - ()
Sea Level Pressure  
Sea Level Pressure 29.85 in    
Wind  
Wind Speed 4 mph (SSW)    
Max Wind Speed 12 mph    
Max Gust Speed -    
Averages and records for this station are not official NWS values.
T = Trace of Precipitation, MM = Missing Value Source: NWS Daily Summary

Daily Weather History Graph

Daily Weather History Graph

Search for Another Location

Airport or City:

Trip Planner

Search our weather history database for the weather conditions in past years. The results will help you decide how hot, cold, wet, or windy it might be!

Date:

Astronomy

Aug. 30, 2013 Rise Set
Actual Time 6:40 AM CDT 7:48 PM CDT
Civil Twilight 6:12 AM CDT 8:16 PM CDT
Nautical Twilight 5:39 AM CDT 8:49 PM CDT
Astronomical Twilight 5:04 AM CDT 9:23 PM CDT
Moon 1:20 AM CDT (8/30) 4:04 PM CDT (8/30)
Length of Visible Light 14h 03m
Length of Day
13h 07m
Waning Crescent, 29% of the Moon is Illuminated
Aug 30
Waning Crescent
Sep 5
New
Sep 12
First Quarter
Sep 19
Full
Sep 26
Last Quarter

Hourly Weather History & Observations

Time (CDT) Temp. Heat Index Dew Point Humidity Pressure Visibility Wind Dir Wind Speed Gust Speed Precip Events Conditions
12:52 AM 77.0 °F - 72.0 °F 84% 29.92 in - Calm Calm - N/A   Unknown
1:52 AM 75.9 °F - 72.0 °F 87% 29.91 in - South 3.5 mph - N/A   Unknown
2:52 AM 75.9 °F - 72.0 °F 87% 29.91 in - Calm Calm - N/A   Unknown
3:52 AM 75.0 °F - 71.1 °F 87% 29.90 in - South 3.5 mph - N/A   Unknown
4:52 AM 73.9 °F - 70.0 °F 87% 29.90 in - SSW 3.5 mph - N/A   Unknown
5:52 AM 75.0 °F - 70.0 °F 84% 29.90 in - South 4.6 mph - N/A   Unknown
6:52 AM 75.0 °F - 70.0 °F 84% 29.90 in - SSW 4.6 mph - N/A   Unknown
7:52 AM 77.0 °F - 71.1 °F 82% 29.91 in - SSW 5.8 mph - N/A   Unknown
8:52 AM 81.0 °F 84.9 °F 71.1 °F 72% 29.92 in - SSW 3.5 mph - N/A   Unknown
9:52 AM 86.0 °F 90.7 °F 70.0 °F 59% 29.91 in - Variable 6.9 mph - N/A   Unknown
10:52 AM 91.0 °F 96.6 °F 70.0 °F 50% 29.89 in - SW 8.1 mph - N/A   Unknown
11:52 AM 93.9 °F 99.1 °F 69.1 °F 44% 29.87 in - SW 8.1 mph - N/A   Unknown
12:52 PM 96.1 °F 101.6 °F 69.1 °F 41% 29.86 in - Variable 6.9 mph - N/A   Unknown
1:52 PM 100.0 °F 104.9 °F 66.9 °F 34% 29.84 in - Variable 4.6 mph - N/A   Unknown
2:52 PM 100.0 °F 103.0 °F 64.0 °F 31% 29.82 in - WSW 11.5 mph - N/A   Unknown
3:52 PM 100.9 °F 102.1 °F 61.0 °F 27% 29.80 in - SW 9.2 mph - N/A   Unknown
4:52 PM 100.9 °F 100.5 °F 57.9 °F 24% 29.79 in - SSW 8.1 mph - N/A   Unknown
5:52 PM 100.0 °F 101.8 °F 62.1 °F 29% 29.78 in - SW 4.6 mph - N/A   Unknown
6:52 PM 95.0 °F 99.5 °F 68.0 °F 41% 29.78 in - SSW 6.9 mph - N/A   Unknown
7:52 PM 91.0 °F 95.2 °F 68.0 °F 47% 29.79 in - South 5.8 mph - N/A   Unknown
8:52 PM 86.0 °F 90.1 °F 69.1 °F 57% 29.79 in - South 4.6 mph - N/A   Unknown
9:52 PM 82.9 °F 87.0 °F 70.0 °F 65% 29.79 in - Calm Calm - N/A   Unknown
10:52 PM 82.9 °F 86.5 °F 69.1 °F 63% 29.78 in - South 4.6 mph - N/A   Unknown
11:52 PM 82.0 °F 85.9 °F 70.0 °F 67% 29.79 in - South 4.6 mph - N/A   Unknown